Home   Weather   Wakkanai   Past weeks
Flag for Japan

Past Weather in Wakkanai, Japan — Yesterday and Last 2 Weeks

Now
25 °F

Chilly.


Feels Like: 14 °F
Forecast: 31 / 23 °F
Wind: 12 mph from West

Location: Wakkanai

Current Time: Dec 6, 2019 at 9:39:42 am

Latest Report: Dec 6, 2019 at 8:00 am


Visibility: N/A

Pressure: 30.08 "Hg

Humidity: 67%

Dew Point: 16 °F

Location of WakkanaiLocation

Past Weather in Wakkanai — Graph

°F

Wakkanai Temperature Yesterday

Maximum temperature yesterday: 29 °F (at 1:00 pm)
Minimum temperature yesterday: 24 °F (at 12:00 am)
Average temperature yesterday: 26 °F

High & Low Weather Summary for the Past Weeks

 TemperatureHumidityPressure
High54 °F (Nov 24, 11:00 am)95% (Nov 25, 1:00 am)30.45 "Hg (Nov 25, 1:00 am)
Low18 °F (Dec 4, 3:00 am)46% (Dec 3, 8:00 am)29.41 "Hg (Dec 2, 8:00 pm)
Average32 °F70%30.05 "Hg
* Reported Nov 21 7:00 am — Dec 6 7:00 am, Wakkanai. Weather by CustomWeather, © 2019

Note: Actual official high and low records may vary slightly from our data, if they occured in-between our weather recording intervals... More about our weather records

Wakkanai Weather History for the Previous 24 Hours

Scroll right to see more
 ConditionsComfort  
Time TempWeatherWind HumidityBarometerVisibility
7:00 am
Fri, Dec 6
24 °FCold.10 mph90%30.06 "HgN/A
6:00 am25 °FSnow flurries. Overcast.13 mph75%30.06 "Hg3 mi
5:00 am26 °FChilly.9 mph79%30.03 "HgN/A
4:00 am26 °FChilly.10 mph76%30.03 "HgN/A
3:00 am26 °FSnow flurries. Overcast.8 mph73%30.03 "Hg6 mi
2:00 am26 °FChilly.12 mph82%30.03 "HgN/A
1:00 am26 °FChilly.10 mph67%30.03 "HgN/A
12:00 am27 °FChilly.10 mph70%30.03 "HgN/A
11:00 pm
Thu, Dec 5
26 °FChilly.13 mph83%30.03 "HgN/A
10:00 pm27 °FChilly.5 mph65%30.04 "HgN/A
9:00 pm27 °FSnow flurries. Overcast.7 mph66%30.05 "Hg6 mi
8:00 pm27 °FChilly.7 mph65%30.04 "HgN/A
7:00 pm27 °FChilly.7 mph64%30.04 "HgN/A
6:00 pm27 °FOvercast.6 mph66%30.03 "Hg12 mi
5:00 pm27 °FChilly.9 mph66%30.01 "HgN/A
4:00 pm27 °FChilly.8 mph62%30.00 "HgN/A
3:00 pm28 °FSnow flurries. Overcast.14 mph73%29.98 "Hg9 mi
2:00 pm27 °FChilly.14 mph81%29.96 "HgN/A
1:00 pm29 °FChilly.15 mph68%29.94 "HgN/A
12:00 pm28 °FSnow flurries. Partly sunny.20 mph66%29.93 "Hg6 mi
11:00 am28 °FChilly.24 mph79%29.92 "HgN/A
10:00 am28 °FChilly.21 mph72%29.91 "HgN/A
9:00 am27 °FSnow flurries. Overcast.17 mph91%29.90 "Hg1 mi
Weather by CustomWeather, © 2019

See weather overview

Advertising